• In United Kingdom
  • List of Countries
  • For 7 days
  • Water Temperature
  • Satellite Maps
  • Weather Map
  • Weather Widgets
  • user-avatar
    Login

    Hourly Weather Lubumbashi

    Today, 20 September, Wednesday

    Time Temperature Precipitation Wind Pressure Humidity
    00:00 +32°C° 0 mm 4 mps 720 mmHg 47%
    01:00 +32°C° 0 mm 4 mps 720 mmHg 48%
    02:00 +30°C° 0 mm 4 mps 720 mmHg 50%
    03:00 +30°C° 0 mm 3 mps 720 mmHg 51%
    04:00 +29°C° 0 mm 3 mps 720 mmHg 53%
    05:00 +29°C° 0 mm 3 mps 720 mmHg 55%
    06:00 +29°C° 0 mm 3 mps 720 mmHg 55%
    07:00 +30°C° 0 mm 3 mps 720 mmHg 55%
    08:00 +32°C° 0 mm 4 mps 721 mmHg 55%
    09:00 +33°C° 0 mm 4 mps 721 mmHg 51%
    10:00 +34°C° 0 mm 3 mps 721 mmHg 47%
    11:00 +36°C° 0 mm 3 mps 721 mmHg 43%
    12:00 +37°C° 0 mm 3 mps 721 mmHg 39%
    13:00 +38°C° 0 mm 2 mps 720 mmHg 36%
    14:00 +37°C° 0 mm 1 mps 719 mmHg 33%
    15:00 +37°C° 0 mm 1 mps 719 mmHg 33%
    16:00 +37°C° 0 mm 1 mps 719 mmHg 32%
    17:00 +37°C° 0 mm 1 mps 718 mmHg 32%
    18:00 +36°C° 0 mm 1 mps 718 mmHg 34%
    19:00 +36°C° 0 mm 2 mps 718 mmHg 36%
    20:00 +36°C° 0 mm 2 mps 718 mmHg 38%
    21:00 +35°C° 0 mm 3 mps 719 mmHg 40%
    22:00 +35°C° 0 mm 3 mps 719 mmHg 42%
    23:00 +34°C° 0 mm 3 mps 719 mmHg 44%

    Tomorrow, 21 September, Thursday

    Time Temperature Precipitation Wind Pressure Humidity
    00:00 +33°C° 0 mm 4 mps 719 mmHg 47%
    01:00 +33°C° 0 mm 4 mps 719 mmHg 51%
    02:00 +32°C° 0 mm 5 mps 719 mmHg 54%
    03:00 +32°C° 0 mm 4 mps 718 mmHg 56%
    04:00 +30°C° 0 mm 3 mps 718 mmHg 58%
    05:00 +30°C° 0 mm 3 mps 718 mmHg 60%
    06:00 +30°C° 0 mm 3 mps 719 mmHg 59%
    07:00 +31°C° 0 mm 3 mps 719 mmHg 58%
    08:00 +31°C° 0 mm 3 mps 720 mmHg 57%
    09:00 +33°C° 0 mm 3 mps 720 mmHg 54%
    10:00 +34°C° 0 mm 3 mps 720 mmHg 50%
    11:00 +35°C° 0 mm 4 mps 720 mmHg 47%
    12:00 +36°C° 0 mm 3 mps 720 mmHg 44%
    13:00 +37°C° 0 mm 2 mps 719 mmHg 40%
    14:00 +36°C° 0 mm 1 mps 718 mmHg 37%
    15:00 +36°C° 0 mm 1 mps 717 mmHg 36%
    16:00 +37°C° 0 mm 1 mps 717 mmHg 36%
    17:00 +37°C° 0 mm 1 mps 717 mmHg 35%
    18:00 +36°C° 0.6 mm 3 mps 717 mmHg 41%
    19:00 +35°C° 0.6 mm 4 mps 718 mmHg 47%
    20:00 +33°C° 0.6 mm 6 mps 718 mmHg 52%
    21:00 +32°C° 1.4 mm 6 mps 719 mmHg 56%
    22:00 +30°C° 1.4 mm 7 mps 719 mmHg 60%
    23:00 +30°C° 1.4 mm 7 mps 719 mmHg 64%

    Day after tomorrow, 22 September, Friday

    Time Temperature Precipitation Wind Pressure Humidity
    00:00 +29°C° 1.3 mm 7 mps 719 mmHg 67%
    01:00 +29°C° 1.3 mm 7 mps 719 mmHg 70%
    02:00 +28°C° 1.3 mm 6 mps 719 mmHg 73%
    03:00 +28°C° 0.1 mm 6 mps 719 mmHg 74%
    04:00 +28°C° 0.1 mm 5 mps 719 mmHg 75%
    05:00 +27°C° 0.1 mm 4 mps 718 mmHg 77%
    06:00 +28°C° 0.2 mm 4 mps 719 mmHg 74%
    07:00 +28°C° 0.2 mm 4 mps 719 mmHg 71%
    08:00 +29°C° 0.2 mm 4 mps 720 mmHg 69%
    09:00 +31°C° 0 mm 3 mps 720 mmHg 60%
    10:00 +34°C° 0 mm 2 mps 720 mmHg 51%
    11:00 +35°C° 0 mm 1 mps 720 mmHg 42%
    12:00 +36°C° 0 mm 1 mps 719 mmHg 39%
    13:00 +38°C° 0 mm 2 mps 719 mmHg 35%
    14:00 +39°C° 0 mm 2 mps 718 mmHg 32%
    15:00 +39°C° 0 mm 2 mps 718 mmHg 32%
    16:00 +39°C° 0 mm 2 mps 717 mmHg 32%
    17:00 +38°C° 0 mm 2 mps 717 mmHg 32%
    18:00 +38°C° 0.1 mm 3 mps 718 mmHg 34%
    19:00 +37°C° 0.1 mm 3 mps 718 mmHg 37%
    20:00 +36°C° 0.1 mm 3 mps 718 mmHg 40%
    21:00 +35°C° 0.5 mm 3 mps 719 mmHg 43%
    22:00 +34°C° 0.5 mm 3 mps 719 mmHg 47%
    23:00 +33°C° 0.5 mm 3 mps 719 mmHg 51%

    23 September, Saturday

    Time Temperature Precipitation Wind Pressure Humidity
    00:00 +33°C° 0.5 mm 3 mps 718 mmHg 53%
    01:00 +31°C° 0.5 mm 3 mps 718 mmHg 56%
    02:00 +32°C° 0.5 mm 4 mps 718 mmHg 59%
    03:00 +30°C° 0 mm 3 mps 718 mmHg 60%
    04:00 +30°C° 0 mm 3 mps 718 mmHg 61%
    05:00 +29°C° 0 mm 3 mps 718 mmHg 63%
    06:00 +30°C° 0 mm 3 mps 719 mmHg 61%
    07:00 +30°C° 0 mm 2 mps 719 mmHg 60%
    08:00 +31°C° 0 mm 2 mps 720 mmHg 59%
    09:00 +32°C° 0 mm 2 mps 720 mmHg 54%
    10:00 +34°C° 0 mm 1 mps 720 mmHg 48%
    11:00 +35°C° 0 mm 1 mps 720 mmHg 43%
    12:00 +36°C° 0 mm 1 mps 719 mmHg 39%
    13:00 +37°C° 0 mm 1 mps 718 mmHg 36%
    14:00 +36°C° 0 mm 0 mps 718 mmHg 33%
    15:00 +39°C° 0 mm 1 mps 718 mmHg 32%
    16:00 +39°C° 0 mm 1 mps 717 mmHg 32%
    17:00 +39°C° 0 mm 1 mps 717 mmHg 32%
    18:00 +38°C° 0 mm 2 mps 717 mmHg 34%
    19:00 +37°C° 0 mm 2 mps 718 mmHg 36%
    20:00 +37°C° 0 mm 3 mps 718 mmHg 38%
    21:00 +36°C° 0 mm 3 mps 718 mmHg 40%
    22:00 +36°C° 0 mm 3 mps 718 mmHg 42%
    23:00 +35°C° 0 mm 3 mps 718 mmHg 45%

    24 September, Sunday

    Time Temperature Precipitation Wind Pressure Humidity
    00:00 +34°C° 0 mm 3 mps 718 mmHg 47%
    01:00 +34°C° 0 mm 3 mps 717 mmHg 49%
    02:00 +33°C° 0 mm 3 mps 717 mmHg 51%
    03:00 +31°C° 0 mm 3 mps 717 mmHg 53%
    04:00 +31°C° 0 mm 2 mps 717 mmHg 55%
    05:00 +30°C° 0 mm 2 mps 718 mmHg 57%
    06:00 +30°C° 0.6 mm 3 mps 718 mmHg 59%
    07:00 +32°C° 0.6 mm 4 mps 719 mmHg 60%
    08:00 +32°C° 0.6 mm 5 mps 720 mmHg 61%
    09:00 +33°C° 0 mm 4 mps 720 mmHg 57%
    10:00 +34°C° 0 mm 4 mps 720 mmHg 52%
    11:00 +35°C° 0 mm 4 mps 720 mmHg 48%
    12:00 +36°C° 0 mm 3 mps 719 mmHg 45%
    13:00 +37°C° 0 mm 3 mps 718 mmHg 42%
    14:00 +38°C° 0 mm 3 mps 718 mmHg 39%
    15:00 +38°C° 0 mm 4 mps 717 mmHg 40%
    16:00 +37°C° 0 mm 5 mps 717 mmHg 40%
    17:00 +38°C° 0 mm 6 mps 717 mmHg 41%
    18:00 +35°C° 0.9 mm 6 mps 717 mmHg 46%
    19:00 +33°C° 0.9 mm 6 mps 718 mmHg 51%
    20:00 +32°C° 0.9 mm 7 mps 719 mmHg 57%
    21:00 +30°C° 1.5 mm 6 mps 719 mmHg 62%
    22:00 +29°C° 1.5 mm 5 mps 720 mmHg 67%
    23:00 +29°C° 1.5 mm 5 mps 720 mmHg 71%

    25 September, Monday

    Time Temperature Precipitation Wind Pressure Humidity
    00:00 +29°C° 0.4 mm 4 mps 720 mmHg 70%
    01:00 +29°C° 0.4 mm 3 mps 720 mmHg 69%
    02:00 +29°C° 0.4 mm 2 mps 719 mmHg 68%
    03:00 +29°C° 0.1 mm 2 mps 719 mmHg 70%
    04:00 +28°C° 0.1 mm 2 mps 719 mmHg 73%
    05:00 +28°C° 0.1 mm 3 mps 719 mmHg 75%
    06:00 +28°C° 0 mm 2 mps 720 mmHg 73%
    07:00 +28°C° 0 mm 1 mps 720 mmHg 72%
    08:00 +28°C° 0 mm 1 mps 720 mmHg 71%
    09:00 +30°C° 0 mm 1 mps 720 mmHg 62%
    10:00 +31°C° 0 mm 1 mps 720 mmHg 54%
    11:00 +33°C° 0 mm 1 mps 720 mmHg 45%
    12:00 +34°C° 0 mm 1 mps 719 mmHg 41%
    13:00 +35°C° 0 mm 1 mps 718 mmHg 37%
    14:00 +37°C° 0 mm 2 mps 718 mmHg 33%
    15:00 +37°C° 0 mm 2 mps 718 mmHg 33%
    16:00 +37°C° 0 mm 2 mps 717 mmHg 32%
    17:00 +37°C° 0 mm 2 mps 717 mmHg 32%
    18:00 +37°C° 0 mm 2 mps 718 mmHg 34%
    19:00 +36°C° 0 mm 2 mps 718 mmHg 36%
    20:00 +35°C° 0 mm 2 mps 718 mmHg 38%
    21:00 +34°C° 0 mm 2 mps 718 mmHg 40%
    22:00 +34°C° 0 mm 2 mps 718 mmHg 41%
    23:00 +32°C° 0 mm 2 mps 718 mmHg 43%
    Show more